TimeMDT,TemperatureF,Dew PointF,Humidity,Sea Level PressureIn,VisibilityMPH,Wind Direction,Wind SpeedMPH,Gust SpeedMPH,PrecipitationIn,Events,Conditions,WindDirDegrees,DateUTC
12:53 AM,61.0,48.0,62,29.96,10.0,WNW,4.6,-,N/A,,Overcast,290,2013-09-10 06:53:00
1:53 AM,62.1,46.0,56,29.97,10.0,West,3.5,-,N/A,,Overcast,280,2013-09-10 07:53:00
2:53 AM,61.0,46.9,60,29.98,10.0,West,3.5,-,N/A,,Overcast,280,2013-09-10 08:53:00
3:53 AM,60.1,46.9,62,29.98,10.0,Calm,Calm,-,N/A,,Overcast,0,2013-09-10 09:53:00
4:53 AM,61.0,46.0,58,29.98,10.0,Calm,Calm,-,N/A,,Overcast,0,2013-09-10 10:53:00
5:53 AM,59.0,46.0,62,29.99,10.0,Calm,Calm,-,N/A,,Overcast,0,2013-09-10 11:53:00
6:53 AM,57.9,46.0,65,30.01,10.0,SW,3.5,-,N/A,,Overcast,230,2013-09-10 12:53:00
7:53 AM,57.9,48.0,70,30.06,10.0,Calm,Calm,-,N/A,,Overcast,0,2013-09-10 13:53:00
8:53 AM,60.1,48.0,64,30.06,10.0,SE,3.5,-,N/A,,Mostly Cloudy,140,2013-09-10 14:53:00
9:53 AM,63.0,46.0,54,30.07,10.0,SE,4.6,-,N/A,,Overcast,130,2013-09-10 15:53:00
10:53 AM,64.9,42.1,43,30.06,10.0,East,3.5,-,N/A,,Overcast,90,2013-09-10 16:53:00
11:53 AM,66.9,44.1,44,30.06,10.0,ENE,3.5,-,N/A,,Overcast,60,2013-09-10 17:53:00
12:53 PM,68.0,45.0,43,30.05,10.0,SE,3.5,-,N/A,,Overcast,140,2013-09-10 18:53:00
1:53 PM,68.0,44.1,42,30.04,10.0,Calm,Calm,-,N/A,,Mostly Cloudy,0,2013-09-10 19:53:00
2:53 PM,71.1,45.0,39,30.02,10.0,SE,4.6,-,N/A,,Mostly Cloudy,140,2013-09-10 20:53:00
3:53 PM,70.0,44.1,39,30.01,10.0,Calm,Calm,-,N/A,,Clear,0,2013-09-10 21:53:00
4:53 PM,70.0,45.0,41,30.00,10.0,Calm,Calm,-,N/A,,Partly Cloudy,0,2013-09-10 22:53:00
5:53 PM,71.1,46.0,41,30.00,10.0,Calm,Calm,-,N/A,,Clear,0,2013-09-10 23:53:00
6:53 PM,66.9,48.0,51,30.03,10.0,South,4.6,-,N/A,,Scattered Clouds,180,2013-09-11 00:53:00
7:53 PM,64.0,46.9,54,30.05,10.0,SSW,5.8,-,N/A,,Partly Cloudy,200,2013-09-11 01:53:00
8:53 PM,63.0,46.0,54,30.06,10.0,SW,3.5,-,N/A,,Clear,220,2013-09-11 02:53:00
9:53 PM,62.1,46.0,56,30.07,10.0,SW,6.9,-,N/A,,Mostly Cloudy,230,2013-09-11 03:53:00
10:53 PM,61.0,45.0,56,30.08,10.0,WSW,11.5,-,N/A,,Clear,240,2013-09-11 04:53:00
11:53 PM,57.9,46.0,65,30.08,10.0,Calm,Calm,-,N/A,,Clear,0,2013-09-11 05:53:00